Caldwell, NJ

9:40 PM EDT on October 22, 2017 (GMT -0400)
Essex County

Weather History for KCDW - October, 2011

Change the Weather History Date:

Monday, October 24, 2011

  Actual Average Record
Temperature  
Mean Temperature 50 °F -  
Max Temperature 61 °F 63 °F 87 °F (1979)
Min Temperature 39 °F 37 °F 21 °F (1969)
Degree Days  
Heating Degree Days 15    
Moisture  
Dew Point 45 °F    
Average Humidity 82    
Maximum Humidity 100    
Minimum Humidity 60    
Precipitation  
Precipitation 0.00 in - - ()
Sea Level Pressure  
Sea Level Pressure 30.08 in    
Wind  
Wind Speed 1 mph (SSW)    
Max Wind Speed 7 mph    
Max Gust Speed -    
Visibility 8 miles    
Events      
Averages and records for this station are not official NWS values.
T = Trace of Precipitation, MM = Missing Value Source: NWS Daily Summary

Daily Weather History Graph

Daily Weather History Graph

Search for Another Location

Airport or City:

Trip Planner

Search our weather history database for the weather conditions in past years. The results will help you decide how hot, cold, wet, or windy it might be!

Date:

Astronomy

Oct. 24, 2011 Rise Set
Actual Time 7:18 AM EDT 6:03 PM EDT
Civil Twilight 6:50 AM EDT 6:31 PM EDT
Nautical Twilight 6:18 AM EDT 7:03 PM EDT
Astronomical Twilight 5:46 AM EDT 7:35 PM EDT
Moon 4:32 AM EDT (10/24) 4:27 PM EDT (10/24)
Length of Visible Light 11h 41m
Length of Day
10h 45m
Waning Crescent, 7% of the Moon is Illuminated
Oct 24
Waning Crescent
Oct 26
New
Nov 2
First Quarter
Nov 10
Full
Nov 18
Last Quarter

Hourly Weather History & Observations

Time (EDT) Temp. Dew Point Humidity Pressure Visibility Wind Dir Wind Speed Gust Speed Precip Events Conditions
12:53 AM 43.0 °F 42.1 °F 97% 30.16 in 7.0 mi Calm Calm - N/A   Clear
1:53 AM 42.1 °F 41.0 °F 96% 30.16 in 7.0 mi Calm Calm - N/A   Clear
2:53 AM 41.0 °F 41.0 °F 100% 30.15 in 7.0 mi Calm Calm - N/A   Clear
3:53 AM 39.9 °F 39.9 °F 100% 30.14 in 7.0 mi Calm Calm - N/A   Clear
4:53 AM 39.9 °F 39.9 °F 100% 30.15 in 6.0 mi Calm Calm - N/A   Clear
5:53 AM 39.9 °F 39.9 °F 100% 30.14 in 6.0 mi Calm Calm - N/A   Clear
6:53 AM 39.9 °F 39.0 °F 97% 30.13 in 6.0 mi Calm Calm - N/A   Clear
7:53 AM 39.9 °F 39.0 °F 97% 30.14 in 5.0 mi Calm Calm - N/A   Clear
9:53 AM 50.0 °F 45.0 °F 83% 30.14 in 7.0 mi Calm Calm - N/A   Clear
10:53 AM 55.0 °F 46.0 °F 72% 30.12 in 8.0 mi Calm Calm - N/A   Clear
11:53 AM 59.0 °F 46.9 °F 64% 30.11 in 10.0 mi WSW 6.9 mph - N/A   Mostly Cloudy
12:53 PM 59.0 °F 46.9 °F 64% 30.09 in 10.0 mi Variable 5.8 mph - N/A   Mostly Cloudy
1:53 PM 59.0 °F 46.9 °F 64% 30.06 in 10.0 mi Variable 6.9 mph - N/A   Mostly Cloudy
3:53 PM 61.0 °F 48.0 °F 62% 30.01 in 10.0 mi Calm Calm - N/A   Partly Cloudy
4:53 PM 61.0 °F 46.9 °F 60% 30.01 in 10.0 mi Calm Calm - N/A   Mostly Cloudy
5:53 PM 59.0 °F 48.0 °F 67% 29.99 in 10.0 mi SSE 3.5 mph - N/A   Overcast
6:53 PM 57.0 °F 48.9 °F 74% 30.00 in 10.0 mi Calm Calm - N/A   Mostly Cloudy
7:53 PM 55.9 °F 50.0 °F 80% 30.00 in 10.0 mi Calm Calm - N/A   Overcast
8:53 PM 57.0 °F 50.0 °F 77% 30.00 in 10.0 mi SSW 3.5 mph - N/A   Overcast
10:53 PM 54.0 °F 51.1 °F 90% 29.99 in 9.0 mi Calm Calm - 0.00 in   Mostly Cloudy